[[{"header":{"parameterUnit":"m.s-1","parameterCategory":1,"la1":30.2991,"la2":30.254,"lo1":-89.0895,"lo2":-89.0444,"dy":0.0017,"dx":0.0017,"nx":28,"ny":28,"refTime":"2023-08-22T03:00:00:Z","depth":0,"parameterNumber":2,"parameterNumberName":"U-component_of_WINDS"},"data":[0,0,0,0,0,0,0,0,0,0,0,0,0,0,0,0,0,0,0,0,0,0,0,0,0,0,0,0,0,0,0,0,0,0,0,0,0,0,0,0,0,0,0,0,0,0,0,0,0,0,0,0,0,0,0,0,0,0,0.1036,0.1037,0,0.1113,0.1113,0.1114,0.1159,0.1159,0.1159,0.116,0.1237,0.1239,0.1241,0,0,0,0,0,0,0,0,0,0,0,0,0,0.0928,0.0929,0.1036,0.1037,0.1038,0.1112,0.1113,0.1115,0.1159,0.1159,0.1159,0.116,0.1236,0.1239,0.1241,0,0,0,0,0,0,0,0,0,0,0,0,0,0.0986,0.093,0.1036,0.1069,0.1073,0.1112,0.1113,0.1115,0.1159,0.1159,0.116,0.116,0.1236,0.1239,0.1241,0.1253,0,0,0.125,0.1251,0,0,0,0,0,0,0,0,0.0983,0.099,0.1063,0.1067,0.1071,0.1127,0.1104,0.1161,0.1159,0.1126,0.116,0.116,0.12,0.1206,0.122,0.1257,0.126,0.125,0.1252,0.1253,0.1254,0,0,0,0,0,0,0,0.0979,0.0987,0.1066,0.1064,0.1069,0.108,0.1089,0.1115,0.1161,0.1129,0.1133,0.1141,0.1202,0.1217,0.1222,0.1261,0.125,0.1253,0.1254,0.1256,0.1312,0.1312,0,0,0,0,0,0,0.097,0.0984,0.1064,0.1069,0.1027,0.1082,0.1091,0.1108,0.116,0.1169,0.1141,0.1143,0.1212,0.1218,0.1225,0.1242,0.1253,0.1256,0.1257,0.1312,0.1312,0.1312,0,0,0,0,0,0,0.0967,0.0976,0.1061,0.1027,0.1039,0.1083,0.1102,0.111,0.1124,0.1169,0.1178,0.1147,0.1212,0.1221,0.1246,0.1245,0.1257,0.126,0.1312,0.1312,0.1312,0.1276,0,0,0,0,0,0,0.0964,0.0975,0.098,0.1027,0.104,0.1081,0.1102,0.1111,0.1129,0.1133,0.1177,0.1185,0.1213,0.1241,0.1249,0.1249,0.1262,0.1313,0.1312,0.1312,0.1278,0.1275,0.1272,0,0,0,0,0,0.096,0.0967,0.098,0.099,0.1048,0.1081,0.1088,0.1121,0.1129,0.1134,0.1163,0.1184,0.1244,0.1243,0.1252,0.1254,0.1313,0.1312,0.1312,0.1279,0.1275,0.1272,0,0,0,0,0,0,0.0919,0.0974,0.0989,0.1012,0.1041,0.1088,0.1096,0.1116,0.1143,0.1145,0.1184,0.1194,0.1215,0.1237,0.1235,0.1268,0.1281,0.1282,0.1253,0.125,0.1247,0.1241,0.1264,0,0,0,0,0,0.0913,0.0936,0.0982,0.0997,0.1012,0.1051,0.1067,0.1089,0.1121,0.1133,0.1164,0.1194,0.122,0.1236,0.1262,0.1281,0.1291,0.1286,0.1284,0.1281,0.1282,0.1293,0.1292,0.131,0.131,0.131,0,0,0.09,0.0933,0.0945,0.099,0.1016,0.1038,0.1061,0.1084,0.11,0.1137,0.1162,0.1186,0.1222,0.1244,0.1255,0.1263,0.1279,0.1281,0.1278,0.128,0.1293,0.1291,0.1289,0.131,0.131,0.131,0,0,0.0888,0.0915,0.0931,0.0956,0.0994,0.1021,0.1024,0.1068,0.1085,0.1112,0.1139,0.116,0.1203,0.1228,0.1246,0.1243,0.1263,0.125,0.1236,0.1247,0.1246,0.1244,0.1243,0.1242,0.1251,0.1251,0.1251,0,0.0867,0.0902,0.0937,0.0958,0.0977,0.1011,0.1027,0.1049,0.1094,0.1106,0.1114,0.117,0.1196,0.1224,0.1224,0.1237,0.1243,0.1245,0.1243,0.1242,0.1242,0.1241,0.124,0.1249,0.1249,0.1249,0.125,0,0.0874,0.0898,0.0906,0.0949,0.0969,0.0987,0.1024,0.104,0.106,0.1086,0.1112,0.1145,0.1179,0.1187,0.1207,0.1218,0.1222,0.1236,0.125,0.1238,0.1238,0.1238,0.1246,0.1247,0.1248,0.1248,0,0,0.0839,0.09,0.0903,0.0922,0.0967,0.0986,0.1006,0.1038,0.1051,0.1081,0.1098,0.1134,0.1148,0.1168,0.1191,0.1201,0.1196,0.1214,0.1215,0.1209,0.121,0.1199,0.1198,0.121,0.121,0.121,0.1207,0,0.0833,0.0871,0.0902,0.0928,0.095,0.0983,0.1,0.1029,0.1053,0.1075,0.1102,0.1127,0.1142,0.1155,0.1166,0.1194,0.1197,0.1195,0.1226,0.1227,0.1216,0.1198,0.1186,0.1182,0.1207,0.1207,0.1207,0,0.0832,0.086,0.0888,0.093,0.0941,0.0956,0.0988,0.1009,0.1043,0.1059,0.1082,0.1106,0.1129,0.114,0.1171,0.1169,0.1184,0.1199,0.12,0.1204,0.1216,0.1201,0.1182,0.1181,0.1207,0.1207,0.1207,0,0.0803,0.0848,0.0871,0.0887,0.0936,0.0946,0.0967,0.1001,0.1019,0.1047,0.1059,0.109,0.1106,0.1129,0.1161,0.1166,0.1188,0.1203,0.1203,0.1202,0.1206,0.1205,0.1188,0.1215,0.1215,0.1215,0.1215,0,0.0793,0.0809,0.0858,0.0872,0.0891,0.0927,0.0944,0.0968,0.0998,0.1016,0.1046,0.1063,0.1104,0.1126,0.1151,0.1173,0.118,0.1194,0.1201,0.1192,0.119,0.1201,0.1203,0.1215,0.1215,0.1215,0.1215,0,0.0764,0.0798,0.0825,0.087,0.0881,0.0893,0.0931,0.0946,0.0972,0.0995,0.1003,0.1043,0.107,0.1104,0.1142,0.1159,0.1178,0.1188,0.1167,0.117,0.1169,0.1168,0.1158,0.1159,0.1185,0.1185,0.1185,0,0.0756,0.0768,0.0815,0.083,0.085,0.0874,0.0892,0.0928,0.0946,0.0985,0.0994,0.1024,0.1049,0.1091,0.1124,0.1153,0.1164,0.1158,0.1169,0.1159,0.1164,0.1163,0.1164,0.1156,0.1155,0.1155,0.1155,0,0.0737,0.0753,0.0778,0.0809,0.083,0.0856,0.0884,0.0894,0.0936,0.0954,0.0982,0.1002,0.1041,0.107,0.1103,0.1125,0.1147,0.1151,0.1153,0.1143,0.1131,0.1137,0.1159,0.1151,0.1152,0.1152,0.1152,0.1152,0.0718,0.0731,0.0765,0.0792,0.0817,0.0842,0.0858,0.0885,0.091,0.0944,0.0964,0.0991,0.1025,0.1072,0.1093,0.1115,0.1123,0.1125,0.1125,0.1125,0.1122,0.1127,0.1121,0.1121,0.1121,0.1121,0.1121,0,0.07,0.0724,0.0749,0.0786,0.0808,0.0826,0.0858,0.0874,0.0898,0.0927,0.0952,0.0984,0.1012,0.1047,0.1078,0.1089,0.1099,0.1095,0.1095,0.1099,0.1114,0.1109,0.1086,0.1086,0.1086,0.1086,0.1086,0.1086,0.0694,0.0717,0.0737,0.0772,0.0796,0.0823,0.0839,0.0862,0.0886,0.0921,0.0944,0.0967,0.0998,0.1031,0.1058,0.1068,0.1077,0.107,0.1083,0.1095,0.1098,0.1101,0.1097,0.1072,0.1072,0.1067,0.1067,0.1067]},{"header":{"parameterUnit":"m.s-1","parameterCategory":1,"la1":30.2991,"la2":30.254,"lo1":-89.0895,"lo2":-89.0444,"dy":0.0017,"dx":0.0017,"nx":28,"ny":28,"refTime":"2023-08-22T03:00:00:Z","depth":0,"parameterNumber":3,"parameterNumberName":"V-component_of_WINDS"},"data":[0,0,0,0,0,0,0,0,0,0,0,0,0,0,0,0,0,0,0,0,0,0,0,0,0,0,0,0,0,0,0,0,0,0,0,0,0,0,0,0,0,0,0,0,0,0,0,0,0,0,0,0,0,0,0,0,0,0,1.7703,1.7702,0,1.7579,1.7578,1.7576,1.751,1.751,1.751,1.751,1.7375,1.7372,1.7368,0,0,0,0,0,0,0,0,0,0,0,0,0,1.7877,1.7874,1.7704,1.7702,1.7701,1.7579,1.7578,1.7576,1.751,1.751,1.751,1.751,1.7376,1.7372,1.7368,0,0,0,0,0,0,0,0,0,0,0,0,0,1.7782,1.7874,1.7704,1.7653,1.7647,1.758,1.7578,1.7576,1.751,1.751,1.751,1.751,1.7378,1.7372,1.7367,1.7338,0,0,1.7351,1.7349,0,0,0,0,0,0,0,0,1.7788,1.7776,1.7662,1.7657,1.765,1.756,1.7589,1.7496,1.751,1.7562,1.751,1.751,1.7436,1.7426,1.7403,1.7332,1.7326,1.7351,1.7348,1.7345,1.7344,0,0,0,0,0,0,0,1.7794,1.7781,1.7654,1.7661,1.7653,1.7634,1.7621,1.7571,1.7501,1.7557,1.7552,1.7539,1.7433,1.7408,1.7399,1.7324,1.7351,1.7346,1.7343,1.7341,1.7223,1.7223,0,0,0,0,0,0,1.781,1.7787,1.7658,1.765,1.772,1.7632,1.7616,1.7589,1.7502,1.7488,1.7539,1.7536,1.7417,1.7405,1.7394,1.7354,1.7345,1.7341,1.7338,1.7223,1.7223,1.7223,0,0,0,0,0,0,1.7814,1.7799,1.7663,1.7717,1.7698,1.7629,1.7599,1.7587,1.7562,1.7488,1.7475,1.7527,1.7417,1.7402,1.7353,1.7349,1.7338,1.7333,1.7223,1.7223,1.7223,1.7275,0,0,0,0,0,0,1.7819,1.7801,1.7791,1.7718,1.7696,1.7626,1.7598,1.7584,1.7554,1.7549,1.7473,1.7461,1.7415,1.7361,1.7348,1.7341,1.7329,1.7223,1.7223,1.7223,1.7273,1.7277,1.728,0,0,0,0,0,1.7826,1.7809,1.7791,1.7775,1.7682,1.7626,1.7613,1.7564,1.7554,1.7542,1.7495,1.7463,1.7352,1.7357,1.7341,1.7333,1.7223,1.7223,1.7223,1.7272,1.7276,1.728,0,0,0,0,0,0,1.788,1.7798,1.7777,1.7736,1.7689,1.7615,1.7598,1.757,1.7522,1.7519,1.7458,1.7441,1.7398,1.7361,1.7368,1.73,1.7284,1.7281,1.7326,1.733,1.7333,1.7342,1.7325,0,0,0,0,0,1.7888,1.7852,1.7781,1.7752,1.7729,1.7669,1.7642,1.7608,1.7556,1.7535,1.7484,1.7432,1.7385,1.7355,1.7308,1.7268,1.725,1.7254,1.7258,1.7261,1.7258,1.7234,1.7235,1.7223,1.7223,1.7223,0,0,1.7902,1.7853,1.7833,1.7761,1.7721,1.7683,1.7652,1.7612,1.7583,1.7528,1.748,1.7441,1.7378,1.7334,1.7312,1.7301,1.7258,1.7261,1.7264,1.7259,1.7234,1.7235,1.7236,1.7223,1.7223,1.7223,0,0,1.7909,1.7869,1.7841,1.7801,1.7741,1.7701,1.7695,1.7625,1.7598,1.7549,1.7507,1.747,1.7391,1.7349,1.7317,1.7311,1.7279,1.7297,1.7313,1.729,1.7291,1.7291,1.7288,1.7288,1.7295,1.7295,1.7295,0,1.7934,1.7878,1.7829,1.7793,1.7762,1.7713,1.7683,1.7646,1.7573,1.7552,1.7542,1.7443,1.7397,1.7342,1.7341,1.7317,1.7306,1.7304,1.7295,1.7295,1.7295,1.7291,1.729,1.7297,1.7297,1.7297,1.7297,0,1.7911,1.7872,1.7856,1.779,1.7757,1.7724,1.7668,1.764,1.761,1.757,1.7521,1.7466,1.7407,1.7391,1.736,1.7332,1.7327,1.7307,1.7289,1.7299,1.7295,1.7293,1.7301,1.73,1.7299,1.7299,0,0,1.7947,1.7856,1.7851,1.782,1.7751,1.7719,1.7683,1.7629,1.7606,1.7557,1.7524,1.746,1.7441,1.7405,1.7369,1.7349,1.7347,1.7331,1.7328,1.7335,1.7311,1.7327,1.7326,1.7326,1.7326,1.7325,1.7316,0,1.7943,1.788,1.7835,1.7788,1.7751,1.7705,1.7674,1.7627,1.7589,1.7551,1.7508,1.7463,1.7443,1.7421,1.7399,1.7352,1.7341,1.7352,1.7293,1.7292,1.731,1.7323,1.7339,1.7333,1.7314,1.7314,1.7314,0,1.7931,1.7887,1.7837,1.7773,1.7755,1.7728,1.7675,1.7639,1.7585,1.7559,1.752,1.7484,1.7442,1.7429,1.737,1.7379,1.7352,1.7326,1.7324,1.7316,1.7303,1.7314,1.733,1.7329,1.7311,1.7311,1.7311,0,1.7962,1.7889,1.785,1.7826,1.775,1.7732,1.7699,1.7645,1.7615,1.7568,1.7547,1.7495,1.7466,1.7425,1.7375,1.7371,1.7321,1.7304,1.7297,1.7298,1.7287,1.7288,1.7298,1.7272,1.7272,1.7272,1.7272,0,1.7962,1.7933,1.7863,1.7839,1.7805,1.7753,1.772,1.7683,1.7636,1.7602,1.7558,1.7527,1.7463,1.7424,1.7384,1.7341,1.7328,1.7304,1.7294,1.7308,1.7311,1.7289,1.7287,1.7272,1.7272,1.7272,1.7272,0,1.799,1.7942,1.7897,1.783,1.7812,1.779,1.7732,1.7705,1.7666,1.7624,1.7611,1.7549,1.75,1.7447,1.7379,1.7353,1.7312,1.7297,1.7331,1.7325,1.732,1.7321,1.7315,1.7311,1.729,1.729,1.729,0,1.7993,1.797,1.7902,1.7877,1.7847,1.7808,1.7778,1.7726,1.7696,1.7634,1.7615,1.7564,1.752,1.7444,1.7391,1.734,1.7323,1.7325,1.7315,1.733,1.7322,1.7324,1.7321,1.7327,1.7327,1.7328,1.7328,0,1.8003,1.7981,1.7941,1.7893,1.786,1.7818,1.7775,1.7757,1.7697,1.7665,1.7617,1.7583,1.7516,1.7465,1.7408,1.7371,1.7339,1.7332,1.7327,1.7341,1.7361,1.7349,1.7338,1.7332,1.7332,1.7331,1.7331,1.7331,1.8017,1.7995,1.7944,1.7901,1.7864,1.7825,1.7798,1.7756,1.7716,1.7659,1.763,1.7582,1.7528,1.7448,1.7413,1.7372,1.7362,1.7356,1.7354,1.7353,1.7356,1.7369,1.7362,1.7362,1.7361,1.7361,1.7361,0,1.8025,1.799,1.7952,1.7894,1.786,1.7836,1.7788,1.776,1.7719,1.7672,1.7631,1.7575,1.7526,1.7471,1.7418,1.7396,1.738,1.7384,1.7384,1.7376,1.7369,1.7378,1.7398,1.7398,1.7398,1.7398,1.7398,1.7398,1.8024,1.7986,1.7958,1.79,1.7864,1.7819,1.7793,1.7756,1.7719,1.766,1.762,1.7585,1.7535,1.7478,1.7431,1.7416,1.7398,1.7406,1.7387,1.738,1.7377,1.7374,1.7382,1.7403,1.7403,1.7397,1.7397,1.7397]}]]